GW0403 Weather Reports


time (UTC)temp
C
wind
direction
speed
KPH
gust
KPH
rain 1hr
cm
rain 24hr
cm
rain mn
cm
humidity
%
barometer
mb
20260507120042 8 0 0.0 1.6 0.00 0.00 0.00 85 1021.0
20260507114540 9 291 0.0 0.0 0.00 0.00 0.00 85 1021.1
20260507113048 9 0 0.0 1.6 0.00 0.00 0.00 85 1021.1
20260507111550 9 276 0.0 1.6 0.00 0.00 0.00 84 1021.0
20260507110058 10 0 0.0 0.0 0.00 0.00 0.00 86 1021.0
20260507104555 10 0 0.0 3.2 0.00 0.00 0.00 86 1021.1
20260507103112 10 0 0.0 1.6 0.00 0.00 0.00 85 1021.2
20260507101544 10 265 0.0 3.2 0.00 0.00 0.00 85 1021.1
20260507100103 10 0 0.0 1.6 0.00 0.00 0.00 86 1021.3
20260507094550 10 0 0.0 1.6 0.00 0.00 0.00 87 1021.3
20260507093043 10 0 0.0 1.6 0.00 0.00 0.00 87 1021.5
20260507091548 10 0 0.0 0.0 0.00 0.00 0.00 87 1021.8
20260507090056 10 0 0.0 0.0 0.00 0.00 0.00 87 1021.7
20260507084547 10 0 0.0 0.0 0.00 0.00 0.00 87 1021.7
20260507083051 11 0 0.0 0.0 0.00 0.00 0.00 87 1021.5
20260507081549 11 0 0.0 1.6 0.00 0.00 0.00 87 1021.7
20260507080055 11 0 0.0 0.0 0.00 0.00 0.00 87 1021.6
20260507074543 11 0 0.0 1.6 0.00 0.00 0.00 87 1021.6
20260507073047 11 0 0.0 0.0 0.00 0.00 0.00 87 1021.5
20260507071548 11 0 0.0 0.0 0.00 0.00 0.00 86 1021.5
20260507064553 11 0 0.0 1.6 0.00 0.00 0.00 86 1021.6
20260507063057 11 0 0.0 1.6 0.00 0.00 0.00 86 1021.6
20260507061547 11 0 0.0 0.0 0.00 0.00 0.00 85 1021.7
20260507060047 11 0 0.0 0.0 0.00 0.00 0.00 86 1021.7
20260507054606 11 0 0.0 0.0 0.00 0.00 0.00 86 1021.7
20260507053059 11 0 0.0 3.2 0.00 0.00 0.00 84 1021.8
20260507051550 11 0 0.0 3.2 0.00 0.00 0.00 84 1021.8
20260507050048 12 0 0.0 0.0 0.00 0.00 0.00 84 1021.7
20260507044554 12 0 0.0 1.6 0.00 0.00 0.00 84 1021.8
20260507043045 12 51 0.0 4.8 0.00 0.00 0.00 83 1021.7
20260507041555 12 0 0.0 1.6 0.00 0.00 0.00 83 1021.7
20260507040044 12 242 0.0 1.6 0.00 0.00 0.00 82 1021.6
20260507034543 12 0 0.0 6.4 0.00 0.00 0.00 82 1021.5
20260507033047 12 314 1.6 4.8 0.00 0.00 0.00 81 1021.5
20260507031543 13 0 0.0 3.2 0.00 0.00 0.00 82 1021.3
20260507030044 13 0 0.0 4.8 0.00 0.00 0.00 82 1021.0
20260507024551 14 274 0.0 1.6 0.00 0.00 0.00 81 1020.9
20260507023042 14 0 0.0 3.2 0.00 0.00 0.00 80 1020.8
20260507021601 15 148 0.0 4.8 0.00 0.00 0.00 80 1020.7
20260507020104 15 316 0.0 4.8 0.00 0.00 0.00 78 1020.8
20260507014611 16 263 1.6 4.8 0.00 0.00 0.00 77 1020.8
20260507013049 16 206 0.0 4.8 0.00 0.00 0.00 78 1020.9
20260507011558 16 347 1.6 4.8 0.00 0.00 0.00 77 1021.0
20260507010048 16 347 0.0 6.4 0.00 0.00 0.00 75 1021.0
20260507004543 17 0 1.6 4.8 0.00 0.00 0.00 75 1020.7
20260507003050 17 318 0.0 4.8 0.00 0.00 0.00 74 1020.8
20260507001559 18 326 1.6 11.3 0.00 0.00 0.00 74 1020.7
20260507000121 17 110 1.6 4.8 0.00 0.00 0.00 75 1020.7
20260506234607 17 321 1.6 4.8 0.00 0.00 0.00 75 1020.7
20260506233051 17 0 0.0 4.8 0.00 0.00 0.00 76 1020.7
20260506231549 17 274 0.0 3.2 0.00 0.00 0.00 75 1020.7
20260506224542 17 162 1.6 4.8 0.00 0.00 0.00 76 1020.9
20260506223045 17 285 1.6 3.2 0.00 0.00 0.00 78 1021.0
20260506221552 17 281 1.6 4.8 0.00 0.00 0.00 78 1021.3
20260506220047 17 0 0.0 1.6 0.00 0.00 0.00 77 1021.1
20260506214547 17 339 0.0 3.2 0.00 0.00 0.00 78 1021.2
20260506213053 17 226 0.0 3.2 0.00 0.00 0.00 80 1021.3
20260506211551 17 290 1.6 4.8 0.00 0.00 0.00 80 1021.2
20260506210051 16 288 0.0 6.4 0.00 0.00 0.00 81 1021.4
20260506204548 16 0 0.0 6.4 0.00 0.00 0.00 81 1021.4
20260506203043 16 175 1.6 4.8 0.00 0.00 0.00 80 1021.4
20260506201545 16 52 0.0 4.8 0.00 0.00 0.00 82 1021.3
20260506200045 15 295 1.6 4.8 0.00 0.00 0.00 84 1021.3
20260506194549 15 0 0.0 6.4 0.00 0.00 0.00 85 1021.7
20260506193052 15 278 0.0 4.8 0.00 0.00 0.00 84 1021.6
20260506191548 15 0 1.6 4.8 0.00 0.00 0.00 84 1021.8
20260506190047 15 286 1.6 8.0 0.00 0.00 0.00 84 1021.6
20260506184557 15 283 0.0 6.4 0.00 0.00 0.00 85 1021.5
20260506183100 15 0 0.0 1.6 0.00 0.00 0.00 84 1021.6
20260506181606 15 0 0.0 3.2 0.00 0.00 0.00 85 1021.4
20260506180052 15 0 0.0 4.8 0.00 0.00 0.00 85 1021.5
20260506174549 14 258 0.0 3.2 0.00 0.00 0.00 86 1021.4
20260506173120 14 325 0.0 4.8 0.00 0.00 0.00 85 1021.4
20260506171549 13 0 0.0 1.6 0.00 0.00 0.00 87 1021.1
20260506170107 13 0 0.0 4.8 0.00 0.00 0.00 89 1021.1
20260506164543 13 280 0.0 6.4 0.00 0.00 0.00 89 1021.1
20260506163053 13 291 0.0 6.4 0.00 0.00 0.00 89 1021.2
20260506161544 13 0 3.2 6.4 0.00 0.00 0.00 88 1021.2
20260506160047 13 0 0.0 3.2 0.00 0.00 0.00 89 1020.8
20260506154604 13 236 0.0 1.6 0.00 0.00 0.00 90 1020.4
20260506153047 12 0 0.0 1.6 0.00 0.00 0.00 92 1020.5
20260506151546 11 0 0.0 1.6 0.00 0.00 0.00 92 1021.0
20260506150044 11 0 0.0 3.2 0.00 0.00 0.00 93 1021.0
20260506144551 11 0 0.0 1.6 0.00 0.00 0.00 94 1021.0
20260506143048 11 268 0.0 1.6 0.00 0.00 0.00 94 1020.9
20260506141545 11 0 0.0 0.0 0.00 0.00 0.00 94 1020.5
20260506140051 11 0 0.0 1.6 0.00 0.00 0.00 94 1020.2
20260506134547 11 0 0.0 1.6 0.00 0.00 0.00 94 1020.2
20260506133055 11 0 0.0 0.0 0.00 0.00 0.00 94 1020.0
20260506131547 11 0 0.0 8.0 0.00 0.00 0.00 94 1019.9
20260506130047 11 0 0.0 1.6 0.00 0.00 0.00 94 1019.6
20260506124546 11 277 0.0 1.6 0.00 0.00 0.00 93 1019.5
20260506123044 11 0 0.0 1.6 0.00 0.00 0.00 94 1019.4
20260506121548 11 0 0.0 0.0 0.00 0.00 0.00 93 1019.5